User: anonymous   Login
Location: Cussy
(47.0410°N, 4.6412°E)
Time: 07:41:54
(UTC+00:00)
Language:

deb Agena D - Orbit

View from above orbital plane
View from above orbital plane
View from above satellite
View from above satellite

Ground track
Ground track

The orbit data is extracted from the following two-line orbital elements,

1  5067U 70025JM  21171.43547656  .00000102  00000-0  18927-3 0  9997
2  5067 100.0976 333.2803 0006963 137.2283 279.0943 13.63615640537098
Epoch (UTC): 20 June 2021 10:27:05
Eccentricity: 0.0006963
inclination: 100.0976°
perigee height: 1017 km
apogee height: 1028 km
right ascension of ascending node: 333.2803°
argument of perigee: 137.2283°
revolutions per day: 13.63615640
mean anomaly at epoch: 279.0943°
orbit number at epoch: 53709

The dashed part of the orbit path shows where the satellite is in the earth's shadow,  

DLR